Location: Goettingen
(51.5300°N, 9.9433°E)
Time: 17:52:02
(UTC+02:00)

ISS - Pass Details

Date: 25 May 2020
Orbit: 417 x 420 km, 51.6° (Epoch: 26 May)

Event Time Altitude Azimuth Distance (km) Brightness Sun altitude
Rises 00:43:26 0° 283° (WNW) 2,369 0.4 -17.1°
Reaches altitude 10° 00:45:46 10° 270° (W) 1,502 -0.9 -17.2°
Enters shadow 00:47:37 22° 241° (WSW) 984 -2.1 -17.2°
